Probability
4 3 1 0 0 0 0 0 0 0 0 0 0 0 0 0 0 0 0 0 0 0 0 1 4 5 6 5 4 4 3 2 1 1 1 1 0 0 0 0 0 0 1 1 1 2 2 1 0
2 1 1 1 1 0 0 0 0 0 0 0 0 0 0 0 0 0 0 0 0 0 0 1 3 4 4 5 4 4 4 2 1 0 0 0 0 0 0 0 0 0 0 0 0 1 1 0 0
0 0 1 2 2 1 1 0 0 0 0 0 0 0 0 0 0 0 0 0 0 0 1 1 2 2 3 4 4 4 4 2 0 0 0 0 0 0 0 0 0 0 0 0 0 0 0 0 0
0 1 2 2 1 1 1 0 0 0 0 0 0 0 0 0 0 0 0 0 0 1 1 1 2 3 4 5 4 3 2 1 0 0 0 0 0 0 0 0 0 0 0 0 0 0 0 0 0
1 1 2 1 0 1 1 0 0 0 0 0 0 0 0 0 0 0 0 0 0 1 0 1 3 4 5 6 4 2 1 1 0 0 0 0 0 0 0 0 0 0 0 0 0 0 0 0 0
1 1 1 1 1 0 0 0 0 0 0 0 0 0 0 0 0 0 0 0 0 0 0 1 3 5 5 4 3 2 3 3 2 0 0 0 0 1 1 0 0 0 0 0 0 0 0 0 0
2 2 2 2 2 1 0 0 0 0 0 0 0 0 0 0 0 0 0 0 0 0 0 1 2 4 4 3 3 4 6 6 5 2 1 0 0 1 1 0 0 0 0 0 0 0 0 0 0
4 3 3 3 2 1 0 0 0 0 0 0 0 0 0 0 0 0 0 0 0 0 0 0 1 3 3 3 4 6 7 7 6 5 3 1 0 1 1 0 0 0 0 0 0 0 0 0 0
3 3 3 2 1 0 0 0 0 0 0 0 0 0 0 0 0 0 0 0 0 0 0 1 1 3 3 3 3 5 5 5 6 5 3 1 0 0 0 0 0 0 0 0 0 0 0 0 0
1 1 2 2 1 0 0 0 0 0 0 0 0 0 0 0 0 0 0 0 0 1 1 1 2 2 2 2 1 1 2 3 4 3 2 0 0 0 0 0 0 0 0 0 0 0 0 0 0
0 1 2 2 1 0 0 0 0 0 0 0 0 0 0 0 0 0 0 0 0 1 1 1 1 1 1 1 0 0 1 2 2 1 0 0 0 0 0 0 0 0 0 0 0 0 0 0 0
1 1 2 2 1 0 0 0 0 0 1 1 1 1 0 0 0 0 0 1 1 1 1 0 0 0 0 0 0 0 0 1 1 0 0 0 0 0 0 0 0 0 0 0 0 0 0 0 0
0 1 1 1 1 0 0 0 0 0 1 2 2 1 1 1 1 1 1 2 2 1 0 0 0 0 0 0 1 2 1 0 0 0 0 0 0 0 0 0 0 0 0 0 0 0 0 0 0
0 0 0 0 0 0 0 0 0 0 1 1 1 1 1 1 2 2 2 3 3 1 0 0 0 0 0 1 2 3 2 1 0 0 0 0 0 0 0 0 0 0 0 0 0 0 0 0 0
0 0 0 0 0 0 0 0 0 0 0 0 0 0 1 1 1 2 2 3 3 2 1 0 0 0 0 1 2 3 2 1 0 0 0 0 0 0 0 0 0 0 0 0 0 0 0 0 0
0 0 0 0 0 0 0 0 0 0 0 0 0 1 1 1 1 1 1 3 3 3 2 1 1 1 1 1 2 3 3 1 1 0 0 0 0 0 1 0 0 0 0 0 0 0 0 0 0
0 0 0 0 0 0 0 0 1 1 0 0 1 2 2 1 0 0 2 3 3 3 1 1 1 2 2 2 2 3 3 3 2 1 0 0 0 0 0 0 0 0 0 0 0 0 0 0 0
0 0 0 0 0 0 0 1 2 1 0 1 2 3 2 1 0 1 2 3 3 2 1 0 1 1 1 1 2 2 2 2 2 1 0 0 0 0 0 0 0 0 0 0 0 0 0 0 0
0 0 0 0 0 0 0 1 2 1 0 2 3 3 3 2 1 2 3 3 2 1 0 0 0 0 0 0 1 1 1 1 1 1 0 0 0 0 0 0 0 0 0 0 0 0 0 0 0
0 0 0 0 0 0 0 1 1 0 0 1 2 2 3 3 2 2 2 2 1 0 0 0 0 0 0 0 0 0 0 0 0 0 0 0 0 0 0 0 0 0 0 0 0 0 0 0 0
0 0 0 0 0 0 0 0 0 0 0 0 0 1 2 3 2 1 1 1 0 0 0 0 1 1 1 1 0 0 0 0 0 0 0 0 0 0 0 0 0 0 0 0 0 0 0 0 0
0 0 0 0 0 0 0 0 0 0 0 0 0 1 3 3 1 0 1 1 0 0 0 0 1 2 2 2 2 1 1 0 0 0 0 0 0 0 0 0 0 0 0 0 0 0 0 0 0
0 0 0 0 0 0 0 0 0 0 0 0 1 2 3 2 1 1 2 2 1 0 0 0 1 3 3 3 4 3 3 1 0 0 0 0 0 0 0 0 0 0 0 0 0 0 0 0 0
0 0 0 0 0 0 0 0 0 0 0 0 1 2 2 1 0 1 2 3 2 1 1 1 1 2 2 3 5 6 5 3 2 2 2 1 0 0 0 0 0 0 0 0 0 0 0 0 0
0 0 0 0 0 0 0 0 0 0 0 0 0 0 0 0 0 1 2 3 3 3 2 2 1 1 1 3 6 7 6 5 5 4 3 2 1 0 0 0 0 0 0 0 0 0 0 0 0
0 0 0 0 0 0 0 0 0 0 0 0 0 0 0 0 1 1 3 3 3 3 3 3 3 3 3 4 7 8 7 7 5 4 3 3 2 1 0 0 0 0 0 0 0 0 0 0 0
0 0 0 0 0 0 0 0 0 0 0 0 0 0 0 1 2 3 3 3 3 3 3 3 4 6 6 6 7 8 8 7 5 4 4 4 3 1 1 1 1 1 0 0 0 0 0 0 1
0 0 0 0 0 0 0 0 0 0 0 0 0 0 1 1 3 3 3 3 3 3 2 2 5 7 7 7 8 8 9 8 7 6 5 4 3 3 3 3 3 2 1 1 0 0 1 1 2
0 0 0 0 0 0 0 0 0 0 0 0 0 1 2 3 3 3 3 3 3 1 1 2 4 7 7 8 9 9 9 9 8 7 5 4 4 4 5 6 5 4 3 2 1 1 2 3 3
0 0 0 0 0 0 0 0 0 0 0 0 0 1 2 3 3 3 3 3 2 1 1 2 5 7 8 9 11 10 8 8 8 6 4 3 4 5 6 6 6 5 4 3 2 2 3 4 4
Wind_Speed
7 5 2 1 3 4 2 2 1 1 2 2 4 5 5 3 1 2 1 2 3 3 2 4 6 8 9 9 10 10 10 9 9 9 9 9 9 10 11 11 11 11 11 11 11 11 11 11 11
5 4 1 2 4 3 3 2 2 2 3 4 4 4 4 3 2 2 1 2 4 3 3 4 7 8 9 9 9 9 9 9 9 9 9 8 9 9 10 10 10 11 11 11 11 10 10 10 11
5 3 2 3 3 1 1 1 3 4 3 2 3 4 3 2 1 2 1 4 4 3 3 5 8 8 9 9 9 9 8 8 9 9 9 9 9 9 10 10 10 10 10 10 10 10 10 10 10
2 1 3 4 2 1 1 1 3 5 4 4 3 4 3 2 1 2 4 5 5 3 3 5 7 7 8 8 8 8 8 8 8 8 9 9 9 9 9 10 10 10 9 9 9 9 10 9 9
1 3 5 3 2 1 1 2 3 4 3 4 4 4 3 3 4 5 5 5 4 3 3 3 6 7 7 7 7 7 7 7 7 7 8 8 8 9 9 9 9 9 9 8 9 9 9 9 8
3 4 4 2 3 2 2 2 3 5 4 4 4 3 2 2 4 4 4 4 3 3 3 3 5 5 6 7 6 6 6 6 6 7 7 7 8 8 8 9 8 8 8 7 8 8 8 7 7
3 4 2 0 1 2 1 1 3 4 4 3 3 3 2 2 3 4 4 4 3 3 3 2 2 3 4 5 6 6 6 6 6 6 6 7 7 7 8 8 7 7 7 7 7 7 7 6 6
3 4 2 1 1 1 1 2 2 4 3 3 3 4 3 3 5 5 5 4 3 2 2 2 2 2 1 2 4 5 5 5 5 5 6 6 6 6 6 6 6 6 6 6 6 6 6 5 5
3 4 1 1 2 1 2 3 3 4 5 3 3 3 4 8 7 6 4 3 2 2 1 1 2 1 1 1 2 3 3 4 4 4 5 4 2 2 3 4 5 5 5 5 5 5 4 4 5
4 3 2 2 3 3 3 3 3 4 5 4 5 5 8 8 7 6 4 4 3 2 1 1 1 1 1 1 1 1 1 1 2 2 2 2 2 2 2 3 4 4 5 5 4 4 4 4 3
3 2 1 0 1 4 4 3 3 6 2 3 6 7 8 7 5 4 3 3 2 2 1 1 1 1 1 1 1 1 1 1 1 2 2 2 2 2 2 1 2 2 3 3 3 3 2 3 2
2 1 1 0 1 3 4 3 4 3 3 4 7 9 8 7 5 4 4 2 2 2 1 1 2 1 1 1 0 1 1 1 1 1 2 2 1 1 1 1 1 1 1 2 2 2 2 3 3
2 1 1 2 3 4 5 4 4 2 4 7 9 8 7 6 4 3 3 2 2 2 1 1 2 2 1 1 0 1 1 1 1 1 1 2 2 1 1 1 1 1 2 2 2 2 2 2 2
2 2 3 3 4 3 5 3 4 2 6 8 8 7 5 5 4 3 3 2 2 2 1 1 2 2 2 1 1 1 1 1 1 1 1 2 2 2 2 1 1 1 1 1 2 2 2 2 2
3 4 5 3 3 2 5 4 1 4 7 8 7 6 5 3 4 4 3 3 3 2 1 2 2 2 2 1 1 1 1 1 1 1 1 2 2 2 2 2 1 1 1 2 2 2 2 2 2
4 4 3 2 2 2 5 1 1 5 7 6 5 5 4 2 3 3 3 2 2 2 2 2 2 3 2 1 1 1 1 1 1 1 1 2 2 3 3 2 1 1 2 2 2 2 2 2 2
4 1 0 2 0 2 3 2 2 5 7 6 5 5 4 3 2 2 3 3 3 2 2 2 2 3 2 2 1 1 1 1 1 1 1 1 2 3 3 2 1 2 2 2 2 2 2 2 2
2 1 1 2 1 2 1 2 3 5 6 6 5 5 4 4 4 3 3 3 3 2 2 2 2 2 2 2 2 2 1 1 1 1 1 2 2 3 3 2 2 2 2 2 2 3 2 2 2
4 2 2 2 1 2 2 2 3 5 5 5 5 5 5 5 4 3 3 3 3 2 2 2 2 2 2 2 1 1 1 0 0 0 1 1 2 3 3 2 2 2 2 2 3 3 3 2 2
4 2 1 2 1 3 1 1 2 5 7 7 7 8 7 5 3 4 3 3 4 3 3 2 2 2 2 2 1 1 1 1 1 0 1 2 2 3 3 3 2 2 2 2 2 3 2 1 1
1 4 4 2 2 3 2 3 1 2 3 4 6 6 7 8 7 6 5 5 4 4 4 4 3 2 2 2 2 2 2 2 2 1 1 1 2 2 2 3 2 2 3 2 2 3 3 2 1
2 4 4 4 4 2 1 2 5 3 3 5 6 7 8 7 7 7 6 6 6 6 4 3 3 2 2 3 3 3 2 1 1 0 0 1 2 2 2 2 3 2 2 2 2 2 2 3 1
3 3 4 4 4 2 2 0 7 1 4 8 8 9 8 8 8 8 8 7 6 5 4 3 3 2 2 3 3 3 2 1 1 1 1 1 1 1 2 2 2 2 2 2 2 2 2 2 2
5 7 6 6 5 2 2 1 6 4 6 6 8 9 9 8 8 7 6 5 4 4 4 3 3 2 2 3 3 3 4 3 2 2 1 1 1 1 1 1 2 2 2 2 2 2 2 2 2
5 6 5 5 4 4 2 2 8 6 5 6 7 9 9 8 7 7 7 7 6 6 5 4 4 3 3 3 3 3 4 4 3 2 2 1 1 0 0 1 1 1 1 2 2 2 2 2 2
3 8 7 4 4 4 2 4 7 5 4 3 4 5 7 7 7 8 8 8 8 7 6 5 5 4 3 4 3 3 3 2 2 2 2 2 1 1 1 1 1 1 1 2 2 2 2 2 2
5 3 5 7 2 1 4 6 8 3 3 1 1 4 6 7 8 8 8 8 8 7 7 7 6 5 4 4 3 3 3 3 2 2 2 1 1 1 2 2 2 1 1 2 2 1 1 2 1
5 7 5 6 5 2 4 4 5 5 4 2 2 4 5 5 6 7 6 7 7 7 6 6 6 6 4 4 3 3 3 3 3 2 2 2 2 2 2 2 2 2 2 2 2 2 1 2 1
3 4 5 5 4 6 2 7 5 5 5 4 4 4 5 6 7 7 6 6 6 5 6 6 5 4 4 4 3 3 3 2 2 2 2 2 2 2 2 2 2 2 2 2 2 2 2 2 2
4 5 6 5 3 3 3 8 4 3 3 3 3 3 3 4 5 5 5 5 6 6 6 6 6 5 5 4 4 3 3 3 3 2 2 2 2 2 2 2 2 2 2 2 2 2 2 2 2
Wind_Direction
155 144 146 118 55 47 4 338 98 57 56 47 72 86 97 90 133 156 283 136 136 128 143 149 143 132 126 123 122 122 120 117 114 112 109 108 111 116 122 123 123 122 119 118 119 121 121 121 123
149 159 170 61 69 45 331 332 86 84 123 111 76 73 74 57 55 106 110 141 124 122 130 143 139 131 127 125 124 121 121 120 116 112 110 110 113 117 122 125 123 120 118 118 119 121 122 123 125
165 188 81 61 71 140 269 4 102 93 96 87 79 63 75 90 104 137 172 132 108 115 128 140 136 134 130 127 124 121 121 120 117 112 109 108 113 115 119 123 120 117 117 118 119 119 120 120 125
158 81 56 60 47 287 205 143 120 109 68 55 91 69 53 42 110 134 128 121 115 123 129 138 138 139 133 131 127 124 121 119 116 115 113 112 111 111 115 119 117 117 117 117 115 116 117 118 123
76 72 53 36 357 350 65 103 104 90 79 66 84 84 43 20 88 110 121 123 125 125 130 140 141 140 139 138 132 125 122 121 119 117 115 115 111 110 113 118 117 119 119 118 116 118 117 117 120
55 63 64 23 351 13 61 86 87 81 83 77 82 83 47 63 101 121 120 117 123 125 132 132 141 142 138 137 135 131 128 127 125 125 122 118 116 115 114 117 117 119 121 120 119 118 116 115 115
90 79 95 76 350 5 73 79 100 103 92 90 105 92 70 79 96 103 91 89 97 100 102 112 125 131 136 141 145 142 138 137 136 135 130 123 120 119 119 122 127 127 125 124 124 122 119 117 117
117 92 63 34 87 333 104 73 75 92 95 106 104 121 157 148 110 93 80 77 80 84 89 92 88 79 92 126 152 150 145 142 140 139 134 129 128 129 127 126 133 134 130 129 129 122 120 116 117
100 72 54 221 160 192 117 91 70 75 91 78 73 113 136 128 116 102 94 86 90 102 76 76 85 79 65 84 165 156 153 152 148 143 138 127 99 103 117 122 133 136 129 122 119 116 113 104 102
88 100 224 204 165 149 116 100 114 90 82 73 73 82 111 123 126 129 135 142 147 146 123 91 95 66 57 90 66 59 87 107 103 99 105 99 94 89 103 113 125 129 125 121 117 106 97 84 76
123 165 220 330 160 134 118 101 90 114 113 156 146 137 130 130 132 138 142 137 149 143 142 142 152 123 89 51 56 63 67 80 90 101 109 109 97 88 80 80 86 90 103 102 103 88 83 89 92
119 247 189 198 87 103 128 124 94 110 164 147 142 137 135 138 146 150 148 150 133 121 153 158 138 132 114 82 76 85 98 106 119 121 123 121 111 95 94 87 84 86 96 100 95 99 94 93 95
110 327 54 94 82 92 95 101 110 93 102 119 123 125 132 137 138 131 128 130 125 138 159 159 141 143 140 122 141 114 127 144 158 139 132 134 132 132 120 106 97 102 106 113 113 109 97 88 90
135 83 59 67 83 82 93 77 92 113 120 123 128 134 143 145 138 125 125 133 149 159 163 144 137 148 142 150 170 143 135 131 119 122 145 144 140 141 137 119 101 103 108 118 122 125 116 110 107
91 65 37 42 64 93 91 52 78 143 132 132 135 140 144 144 141 153 166 167 169 163 155 160 160 141 140 158 178 157 143 120 121 137 147 150 149 151 139 126 125 140 123 116 107 101 97 96 97
49 55 37 324 64 83 98 169 196 144 139 143 147 150 151 152 159 168 167 165 156 145 147 171 157 136 142 144 134 127 124 122 131 140 126 137 142 139 126 126 135 130 120 122 119 111 94 85 85
31 53 271 293 157 111 114 204 187 153 151 160 164 163 164 163 176 185 176 169 160 157 150 145 131 125 130 123 108 107 107 115 123 120 131 139 137 136 133 136 147 135 128 124 129 112 112 112 103
234 228 246 246 240 107 131 210 172 165 164 173 174 174 175 188 205 193 183 171 157 149 144 142 125 116 114 100 87 81 82 78 86 119 152 144 140 134 131 139 153 140 123 117 122 114 106 110 109
163 169 239 253 192 130 176 206 191 178 175 180 183 187 196 208 204 174 175 169 149 148 151 153 142 136 125 109 112 115 124 119 89 146 150 141 137 132 136 140 142 133 133 139 129 120 109 97 100
144 144 242 322 107 125 121 268 214 191 196 194 192 196 200 201 192 184 179 175 169 171 176 170 169 157 151 140 131 131 130 141 136 60 92 118 130 136 143 141 143 137 129 121 123 130 132 129 108
179 181 188 171 58 59 69 341 271 233 200 200 201 203 203 198 195 192 188 188 179 182 190 190 188 174 158 132 105 87 75 65 61 56 61 87 121 132 134 140 146 145 143 147 152 153 153 152 108
242 221 163 120 87 343 61 289 281 242 231 218 212 205 206 204 196 192 189 190 194 197 190 190 181 172 154 136 130 130 132 137 161 145 120 68 100 116 129 137 145 151 151 154 169 160 150 145 144
193 97 100 92 98 40 16 111 291 307 253 241 220 210 205 202 195 193 194 195 196 188 180 180 170 174 158 148 155 148 143 148 120 94 82 61 61 88 118 138 145 151 152 159 163 146 147 154 162
118 74 59 54 66 3 269 160 284 246 234 245 219 208 204 198 194 193 193 185 183 177 174 168 167 184 166 159 161 162 159 147 130 120 105 71 61 64 82 127 137 146 151 164 166 157 154 162 156
91 90 43 12 13 263 277 203 254 262 246 232 218 205 200 191 185 185 187 185 185 183 180 176 173 191 181 172 174 174 171 162 164 167 170 158 127 122 108 114 131 138 150 148 143 141 145 152 151
156 134 150 181 220 277 323 245 259 281 279 252 215 194 185 181 185 190 193 190 188 187 183 179 182 194 184 182 186 175 166 167 174 177 176 176 183 190 135 116 117 121 125 128 131 134 143 137 151
132 139 149 127 142 317 290 290 304 330 353 5 159 174 188 188 189 193 189 188 186 187 189 185 189 195 188 187 179 169 166 165 171 166 159 155 163 150 131 131 125 118 110 117 123 124 126 124 134
117 137 99 112 140 238 299 290 272 301 306 302 222 200 200 190 191 193 189 190 188 189 188 182 186 190 186 178 181 176 170 168 164 147 151 154 161 148 136 130 127 115 109 117 116 114 117 113 105
87 86 99 108 142 152 234 270 236 233 246 247 238 215 198 192 194 192 191 191 185 179 179 182 184 178 173 176 175 164 161 150 139 143 159 163 158 157 149 142 127 118 114 112 112 114 114 115 107
139 148 141 143 193 162 175 262 283 233 244 228 235 228 199 194 190 185 183 181 179 181 183 183 183 183 183 173 166 161 149 135 138 153 166 156 152 153 149 139 130 133 129 125 133 135 124 131 131